Regional Weather Roundup
Issued by NWS

Home | Current Version | Previous Version | Text Only | Print | Product List | Glossary Off
Versions: 1 2 3 4 5 6 7 8 9 10 11 12 13 14 15 16 17 18 19 20 21 22 23 24 25 26 27

000
ASUS45 KSLC 230610
RWRUT

UTAH REGIONAL WEATHER ROUNDUP
NATIONAL WEATHER SERVICE SALT LAKE CITY UT
1100 PM MST WED FEB 22 2017

UTZ001>011-023>025-230700-

NORTHERN UTAH

CITY           SKY/WX    TMP DP  RH WIND       PRES   REMARKS
BRIGHAM CITY     N/A     34  25  70 S3        29.77F
HILL AFB       CLEAR     30  24  78 E6        29.75F WCI  24
LOGAN          CLOUDY    31  27  85 E9        29.75F WCI  23
OGDEN          CLOUDY    31  25  78 SE3       29.76F
SALT LAKE CITY LGT SNOW  31  29  92 S3        29.78F FOG
TOOELE VALLEY  LGT SNOW  32  30  93 W5        29.79S WCI  27
WENDOVER       PTCLDY    34  12  40 SW8       29.77F WCI  27
HEBER CITY     LGT SNOW  27  21  80 NE3       29.72F
WEST JORDAN    CLOUDY    33  33 100 CALM      29.78F

$$

UTZ011>015-024>027-230700-

CENTRAL/NORTHEAST UTAH

CITY           SKY/WX    TMP DP  RH WIND       PRES   REMARKS
PROVO AIRPORT  CLOUDY    29  27  92 SE6       29.79F WCI  23
MOAB/CANYONLAN CLOUDY    51  26  37 W24G39    29.53S
DELTA          CLOUDY    28  27  93 SE9       29.80F WCI  20
PRICE          CLOUDY    31  17  56 NW17G26   29.64F WCI  19
RICHFIELD      CLOUDY    28  28 100 CALM      29.84S FOG
ROOSEVELT      LGT SNOW  32  30  93 W9        29.67F VSB 1   WCI  24
VERNAL         FLURRIES  31  29  92 N5        29.64F WCI  26

$$

UTZ013>016-019>022-027-230700-

SOUTHERN UTAH

CITY           SKY/WX    TMP DP  RH WIND       PRES   REMARKS
BRYCE CANYON   SNOW      21  18  86 W24G33    29.72R VSB 1/2 WCI   4
CEDAR CITY     CLOUDY    28  21  75 SE12      29.79F WCI  18
MILFORD        CLOUDY    27  22  81 NE8       29.81F WCI  19
ST GEORGE      CLOUDY    39  34  82 E8        29.88R WCI  33
HANKSVILLE     CLOUDY    41  19  42 NW18G26   29.63S
KANAB          MOCLDY    39  25  56 W16       29.80R WCI  30
BLANDING       PTCLDY    44  26  49 S18G26    29.73F

$$

REGIONAL REPORTS     COLORADO/ARIZONA

CITY           SKY/WX    TMP DP  RH WIND       PRES   REMARKS
CRAIG, CO      CLOUDY    29  25  85 CALM      29.58F
GRAND JUNCTION PTCLDY    50  21  32 NW8       29.53F
RIFLE, CO      CLOUDY    53  14  21 SW30G48   29.53F
MONTROSE, CO   CLEAR     49  17  28 S14       29.62F
CORTEZ, CO     CLEAR     44  18  35 SW15      29.70F
COLORADO CITY  LGT SNOW  32  30  93 NW21G30   29.83R WCI  20
PAGE, AZ       PTCLDY    44  26  49 W16G33    29.68R
GRAND CANYON   CLOUDY    35  24  64 SW14G28   29.78F WCI  26
KINGMAN, AZ    CLEAR     43  12  28 SW10      29.86F
FLAGSTAFF, AZ  CLOUDY    38  31  76 SW18      29.80F WCI  28

$$

REGIONAL REPORTS    NEVADA/IDAHO/WYOMING

CITY           SKY/WX    TMP DP  RH WIND       PRES   REMARKS
LAS VEGAS, NV  CLOUDY    51  30  44 S6        29.84R
ELY, NY        PTCLDY    13   3  64 W7        29.80F WCI   3
ELKO, NV       CLOUDY    29  16  58 SW15      29.81F WCI  18
POCATELLO, ID  LGT SNOW  29  28  96 SW5       29.73F FOG     WCI  24
BURLEY, ID     MOCLDY    31  25  78 SW9       29.73F WCI  23
FORT BRIDGER,  LGT SNOW  26  26 100 SW10      29.71R VSB 1   WCI  15
EVANSTON, WY   LGT SNOW  21  17  84 SW16      29.68F VSB 3/4 WCI   7
ROCK SPRINGS,  LGT SNOW  24  22  91 NE8       29.64F FOG     WCI  15

$$




USA.gov is the U.S. government's official web portal to all federal, state and local government web resources and services.